Location: Aufkirchen
(47.9603°N, 11.3653°E)
Time: 17:20:09
(UTC+01:00)

Transit 4A - Pass Details

Date: 04 December 2020
Orbit: 864 x 980 km, 66.8° (Epoch: 26 January)

Event Time Altitude Azimuth Distance (km) Brightness Sun altitude
Rises 07:50:43 0° 227° (SW) 3,634 10.9 -0.3°
Reaches altitude 10° 07:53:17 10° 231° (SW) 2,702 10.2 0.0°
Maximum altitude 07:59:33 59° 310° (NW) 1,122 8.1 0.9°
Drops below altitude 10° 08:05:54 10° 30° (NNE) 2,740 10.3 1.7°
Sets 08:08:32 0° 34° (NE) 3,688 11.0 2.1°
